| time (UTC) | temp F | wind direction | speed knots | gust knots | rain 1hr in | rain 24hr in | rain mn in | humidity % | barometer mb |
| 20260505194519 | 38 | 139 | 1.7 | 5.2 | 0.00 | 0.04 | 0.00 | 94 | 1013.9 |
| 20260505193516 | 38 | 146 | 1.7 | 3.5 | 0.00 | 0.04 | 0.00 | 94 | 1013.8 |
| 20260505192532 | 38 | 148 | 2.6 | 7.0 | 0.00 | 0.04 | 0.00 | 94 | 1013.8 |
| 20260505191528 | 39 | 155 | 1.7 | 3.5 | 0.00 | 0.04 | 0.00 | 94 | 1013.7 |
| 20260505190524 | 39 | 175 | 2.6 | 5.2 | 0.00 | 0.04 | 0.00 | 94 | 1013.9 |
| 20260505185520 | 39 | 137 | 1.7 | 4.3 | 0.00 | 0.04 | 0.00 | 94 | 1014.0 |
| 20260505184516 | 39 | 116 | 2.6 | 7.0 | 0.00 | 0.04 | 0.00 | 93 | 1014.0 |
| 20260505183532 | 38 | 133 | 2.6 | 7.0 | 0.00 | 0.04 | 0.00 | 93 | 1014.1 |
| 20260505182528 | 38 | 92 | 2.6 | 6.1 | 0.00 | 0.04 | 0.00 | 93 | 1014.3 |
| 20260505181524 | 38 | 147 | 4.3 | 7.8 | 0.00 | 0.04 | 0.00 | 93 | 1014.4 |
| 20260505180520 | 39 | 126 | 3.5 | 7.8 | 0.00 | 0.04 | 0.00 | 93 | 1014.7 |
| 20260505175517 | 39 | 108 | 2.6 | 4.3 | 0.00 | 0.04 | 0.00 | 92 | 1014.7 |
| 20260505174533 | 38 | 140 | 2.6 | 6.1 | 0.00 | 0.04 | 0.00 | 91 | 1014.7 |
| 20260505173529 | 38 | 211 | 0.9 | 2.6 | 0.00 | 0.04 | 0.00 | 91 | 1014.8 |
| 20260505172525 | 38 | 79 | 2.6 | 5.2 | 0.00 | 0.04 | 0.00 | 90 | 1014.9 |
| 20260505171522 | 38 | 141 | 2.6 | 6.1 | 0.00 | 0.04 | 0.00 | 90 | 1015.0 |
| 20260505170517 | 38 | 135 | 3.5 | 7.0 | 0.00 | 0.04 | 0.00 | 88 | 1015.1 |
| 20260505165534 | 38 | 141 | 3.5 | 7.8 | 0.00 | 0.04 | 0.00 | 88 | 1015.0 |
| 20260505164530 | 38 | 114 | 3.5 | 5.2 | 0.00 | 0.04 | 0.00 | 88 | 1015.2 |
| 20260505163546 | 38 | 127 | 2.6 | 5.2 | 0.00 | 0.04 | 0.00 | 87 | 1014.8 |
| 20260505162522 | 39 | 33 | 2.6 | 5.2 | 0.00 | 0.04 | 0.00 | 86 | 1015.0 |
| 20260505161538 | 39 | 59 | 1.7 | 5.2 | 0.00 | 0.04 | 0.00 | 85 | 1014.9 |
| 20260505160534 | 39 | 41 | 1.7 | 7.0 | 0.00 | 0.04 | 0.00 | 85 | 1015.0 |
| 20260505152519 | 39 | 13 | 2.6 | 5.2 | 0.00 | 0.04 | 0.00 | 83 | 1015.0 |
| 20260505151535 | 40 | 50 | 2.6 | 6.1 | 0.00 | 0.04 | 0.00 | 81 | 1015.0 |
| 20260505150551 | 41 | 75 | 2.6 | 5.2 | 0.00 | 0.04 | 0.00 | 80 | 1015.0 |
| 20260505140547 | 42 | 130 | 2.6 | 8.7 | 0.00 | 0.04 | 0.00 | 80 | 1014.9 |
| 20260505124536 | 44 | 152 | 3.5 | 6.1 | 0.00 | 0.04 | 0.00 | 78 | 1013.8 |
| 20260505123632 | 44 | 155 | 2.6 | 5.2 | 0.00 | 0.04 | 0.00 | 78 | 1013.7 |
| 20260505122608 | 44 | 88 | 0.9 | 2.6 | 0.00 | 0.04 | 0.00 | 78 | 1013.6 |
| 20260505121524 | 44 | 75 | 3.5 | 5.2 | 0.00 | 0.04 | 0.00 | 77 | 1013.2 |
| 20260505120521 | 44 | 33 | 2.6 | 5.2 | 0.00 | 0.04 | 0.00 | 76 | 1013.2 |
| 20260505115556 | 45 | 137 | 2.6 | 4.3 | 0.00 | 0.04 | 0.00 | 75 | 1013.0 |
| 20260505114533 | 45 | 183 | 2.6 | 5.2 | 0.00 | 0.04 | 0.00 | 74 | 1012.9 |
| 20260505113529 | 45 | 154 | 2.6 | 5.2 | 0.00 | 0.04 | 0.00 | 74 | 1012.9 |
| 20260505112525 | 45 | 125 | 4.3 | 7.8 | 0.00 | 0.04 | 0.00 | 74 | 1012.8 |
| 20260505111521 | 45 | 134 | 2.6 | 5.2 | 0.00 | 0.04 | 0.00 | 75 | 1012.6 |
| 20260505110517 | 45 | 131 | 2.6 | 3.5 | 0.00 | 0.04 | 0.00 | 78 | 1012.7 |
| 20260505101518 | 44 | 136 | 1.7 | 2.6 | 0.00 | 0.04 | 0.00 | 89 | 1012.7 |
| 20260505100535 | 44 | 145 | 0.9 | 2.6 | 0.00 | 0.04 | 0.00 | 90 | 1012.6 |
| 20260505095531 | 43 | 130 | 0.9 | 1.7 | 0.00 | 0.04 | 0.00 | 90 | 1012.7 |
| 20260505094527 | 44 | 125 | 0.9 | 1.7 | 0.00 | 0.04 | 0.00 | 88 | 1012.7 |
| 20260505093523 | 44 | 111 | 0.9 | 1.7 | 0.00 | 0.04 | 0.00 | 88 | 1012.8 |
| 20260505092519 | 45 | 156 | 0.9 | 1.7 | 0.00 | 0.04 | 0.00 | 87 | 1012.6 |
| 20260505091515 | 45 | 122 | 0.9 | 1.7 | 0.00 | 0.04 | 0.00 | 86 | 1012.7 |
| 20260505090551 | 46 | 133 | 0.9 | 1.7 | 0.00 | 0.04 | 0.00 | 85 | 1012.7 |
| 20260505085528 | 46 | 124 | 0.9 | 1.7 | 0.00 | 0.04 | 0.00 | 85 | 1013.0 |
| 20260505084523 | 46 | 128 | 0.9 | 1.7 | 0.00 | 0.04 | 0.00 | 84 | 1013.2 |
| 20260505083519 | 46 | 0.0 | 0.9 | 0.00 | 0.04 | 0.00 | 84 | 1013.1 | |
| 20260505082516 | 46 | 117 | 0.9 | 1.7 | 0.00 | 0.04 | 0.00 | 83 | 1013.3 |
| 20260505081532 | 47 | 125 | 0.0 | 1.7 | 0.00 | 0.04 | 0.00 | 82 | 1013.3 |
| 20260505080528 | 47 | 108 | 0.9 | 1.7 | 0.00 | 0.04 | 0.00 | 82 | 1013.5 |
| 20260505075524 | 47 | 85 | 0.9 | 1.7 | 0.00 | 0.04 | 0.00 | 81 | 1013.3 |
| 20260505074520 | 47 | 108 | 0.9 | 2.6 | 0.00 | 0.04 | 0.00 | 82 | 1013.6 |
| 20260505073516 | 47 | 84 | 0.9 | 1.7 | 0.00 | 0.04 | 0.00 | 83 | 1013.6 |
| 20260505072553 | 47 | 145 | 0.9 | 1.7 | 0.00 | 0.04 | 0.00 | 83 | 1013.7 |
| 20260505071529 | 47 | 121 | 0.9 | 1.7 | 0.00 | 0.04 | 0.00 | 83 | 1013.5 |
| 20260505070525 | 47 | 100 | 0.0 | 1.7 | 0.00 | 0.04 | 0.00 | 82 | 1013.6 |
| 20260505065521 | 47 | 97 | 0.9 | 1.7 | 0.01 | 0.04 | 0.00 | 83 | 1013.6 |
| 20260505064517 | 47 | 150 | 0.9 | 1.7 | 0.01 | 0.04 | 0.00 | 83 | 1013.6 |
| 20260505063533 | 47 | 138 | 0.0 | 1.7 | 0.01 | 0.04 | 0.00 | 83 | 1013.6 |
| 20260505062549 | 47 | 142 | 0.9 | 1.7 | 0.01 | 0.04 | 0.00 | 83 | 1013.7 |
| 20260505061525 | 48 | 150 | 0.0 | 1.7 | 0.01 | 0.04 | 0.00 | 82 | 1013.6 |
| 20260505060522 | 49 | 154 | 0.0 | 1.7 | 0.00 | 0.04 | 0.00 | 79 | 1013.7 |
| 20260505055518 | 49 | 116 | 0.0 | 1.7 | 0.00 | 0.03 | 0.03 | 74 | 1014.0 |
| 20260505054554 | 50 | 134 | 0.9 | 1.7 | 0.00 | 0.03 | 0.03 | 70 | 1014.0 |
| 20260505053530 | 50 | 52 | 0.9 | 2.6 | 0.00 | 0.03 | 0.03 | 69 | 1013.9 |
| 20260505052526 | 50 | 62 | 0.9 | 4.3 | 0.00 | 0.03 | 0.03 | 68 | 1013.8 |
| 20260505051522 | 50 | 63 | 0.9 | 2.6 | 0.00 | 0.03 | 0.03 | 68 | 1013.7 |
| 20260505050519 | 50 | 40 | 1.7 | 3.5 | 0.00 | 0.03 | 0.03 | 67 | 1013.7 |
| 20260505041519 | 50 | 18 | 0.9 | 1.7 | 0.00 | 0.03 | 0.03 | 67 | 1013.3 |
| 20260505040515 | 50 | 64 | 0.9 | 2.6 | 0.00 | 0.03 | 0.03 | 66 | 1013.2 |
| 20260505035531 | 50 | 133 | 0.9 | 3.5 | 0.00 | 0.03 | 0.03 | 66 | 1013.1 |
| 20260505034527 | 50 | 95 | 0.9 | 3.5 | 0.00 | 0.03 | 0.03 | 66 | 1013.0 |
| 20260505033523 | 51 | 66 | 1.7 | 6.1 | 0.00 | 0.03 | 0.03 | 65 | 1013.0 |
| 20260505032539 | 51 | 69 | 0.9 | 2.6 | 0.00 | 0.03 | 0.03 | 65 | 1012.9 |
| 20260505031515 | 50 | 117 | 0.9 | 1.7 | 0.00 | 0.03 | 0.03 | 67 | 1012.9 |
| 20260505030532 | 50 | 68 | 0.9 | 2.6 | 0.00 | 0.03 | 0.03 | 67 | 1012.6 |
| 20260505025528 | 51 | 111 | 0.9 | 2.6 | 0.00 | 0.03 | 0.03 | 66 | 1012.4 |
| 20260505024523 | 51 | 59 | 0.9 | 1.7 | 0.00 | 0.03 | 0.03 | 66 | 1012.7 |
| 20260505023519 | 51 | 126 | 0.9 | 1.7 | 0.00 | 0.03 | 0.03 | 66 | 1012.6 |
| 20260505022515 | 51 | 93 | 0.9 | 3.5 | 0.01 | 0.03 | 0.03 | 66 | 1012.5 |
| 20260505021532 | 51 | 31 | 1.7 | 4.3 | 0.01 | 0.03 | 0.03 | 66 | 1012.6 |
| 20260505020528 | 51 | 31 | 2.6 | 7.0 | 0.01 | 0.03 | 0.03 | 67 | 1012.9 |
| 20260505015524 | 50 | 142 | 0.9 | 2.6 | 0.03 | 0.03 | 0.03 | 79 | 1012.6 |
| 20260505014521 | 50 | 158 | 0.9 | 2.6 | 0.03 | 0.03 | 0.03 | 80 | 1012.3 |
| 20260505013556 | 50 | 181 | 0.9 | 4.3 | 0.02 | 0.03 | 0.03 | 75 | 1012.1 |
| 20260505012533 | 50 | 219 | 0.9 | 2.6 | 0.02 | 0.02 | 0.02 | 74 | 1012.4 |
| 20260505011529 | 53 | 194 | 1.7 | 2.6 | 0.02 | 0.02 | 0.02 | 70 | 1012.3 |
| 20260505010525 | 56 | 317 | 1.7 | 4.3 | 0.02 | 0.02 | 0.02 | 57 | 1012.0 |
| 20260505005520 | 57 | 30 | 1.7 | 3.5 | 0.00 | 0.00 | 0.00 | 52 | 1011.5 |
| 20260505004517 | 59 | 358 | 2.6 | 4.3 | 0.00 | 0.00 | 0.00 | 42 | 1010.9 |
| 20260505003532 | 61 | 15 | 2.6 | 6.1 | 0.00 | 0.00 | 0.00 | 37 | 1010.8 |
| 20260505002528 | 62 | 354 | 1.7 | 4.3 | 0.00 | 0.00 | 0.00 | 34 | 1010.3 |
| 20260505001524 | 62 | 57 | 0.9 | 3.5 | 0.00 | 0.00 | 0.00 | 34 | 1010.0 |
| 20260505000519 | 63 | 360 | 2.6 | 7.8 | 0.00 | 0.00 | 0.00 | 34 | 1009.9 |
| 20260504235515 | 63 | 7 | 1.7 | 4.3 | 0.00 | 0.00 | 0.00 | 34 | 1009.6 |
| 20260504234532 | 64 | 78 | 1.7 | 3.5 | 0.00 | 0.00 | 0.00 | 34 | 1009.3 |
| 20260504233527 | 64 | 63 | 2.6 | 5.2 | 0.00 | 0.00 | 0.00 | 35 | 1009.2 |
| 20260504232523 | 64 | 8 | 0.9 | 3.5 | 0.00 | 0.00 | 0.00 | 36 | 1009.3 |
| 20260504231519 | 63 | 25 | 0.9 | 1.7 | 0.00 | 0.00 | 0.00 | 38 | 1009.4 |
| 20260504230535 | 63 | 43 | 0.0 | 1.7 | 0.00 | 0.00 | 0.00 | 41 | 1009.3 |
| 20260504225530 | 63 | 33 | 0.9 | 2.6 | 0.00 | 0.00 | 0.00 | 41 | 1009.5 |
| 20260504224526 | 62 | 118 | 0.9 | 1.7 | 0.00 | 0.00 | 0.00 | 44 | 1009.3 |
| 20260504223522 | 61 | 121 | 0.9 | 1.7 | 0.00 | 0.00 | 0.00 | 44 | 1009.4 |
| 20260504222518 | 61 | 159 | 2.6 | 5.2 | 0.00 | 0.00 | 0.00 | 40 | 1009.6 |
| 20260504221534 | 59 | 143 | 3.5 | 7.8 | 0.00 | 0.00 | 0.00 | 51 | 1009.9 |
| 20260504220530 | 62 | 352 | 1.7 | 7.0 | 0.00 | 0.00 | 0.00 | 40 | 1010.3 |
| 20260504215545 | 63 | 47 | 1.7 | 3.5 | 0.00 | 0.00 | 0.00 | 38 | 1009.6 |
| 20260504214521 | 62 | 32 | 1.7 | 3.5 | 0.00 | 0.00 | 0.00 | 42 | 1009.7 |
| 20260504213517 | 65 | 10 | 1.7 | 4.3 | 0.00 | 0.00 | 0.00 | 40 | 1009.4 |
| 20260504212533 | 67 | 5 | 3.5 | 9.6 | 0.00 | 0.00 | 0.00 | 27 | 1008.9 |
| 20260504211549 | 69 | 15 | 2.6 | 8.7 | 0.00 | 0.00 | 0.00 | 25 | 1008.9 |
| 20260504210524 | 71 | 339 | 0.9 | 1.7 | 0.00 | 0.00 | 0.00 | 24 | 1008.7 |
| 20260504205541 | 71 | 325 | 0.0 | 1.7 | 0.00 | 0.00 | 0.00 | 23 | 1008.6 |
| 20260504204536 | 72 | 352 | 0.9 | 4.3 | 0.00 | 0.00 | 0.00 | 23 | 1008.9 |
| 20260504203532 | 72 | 31 | 1.7 | 5.2 | 0.00 | 0.00 | 0.00 | 24 | 1009.1 |
| 20260504202548 | 71 | 358 | 1.7 | 8.7 | 0.00 | 0.00 | 0.00 | 24 | 1009.3 |
| 20260504201524 | 71 | 9 | 1.7 | 5.2 | 0.00 | 0.00 | 0.00 | 25 | 1009.4 |
| 20260504200520 | 70 | 51 | 2.6 | 6.1 | 0.00 | 0.00 | 0.00 | 24 | 1009.6 |
| 20260504195516 | 72 | 38 | 1.7 | 3.5 | 0.00 | 0.00 | 0.00 | 22 | 1009.7 |